Time,TemperatureF,DewpointF,PressureIn,WindDirection,WindDirectionDegrees,WindSpeedMPH,WindSpeedGustMPH,Humidity,HourlyPrecipIn,Conditions,Clouds,dailyrainin,SoftwareType,DateUTC
2013-03-07 00:02:00,34.0,26.0,29.91,NE,51,4.0,-999.0,73,-99.99,,,-99.99,,2013-03-07 05:02:00,
2013-03-07 00:12:00,34.0,26.0,29.91,NE,51,4.0,-999.0,73,-99.99,,,-99.99,,2013-03-07 05:12:00,
2013-03-07 00:22:00,34.0,27.0,29.91,NW,323,5.0,-999.0,74,-99.99,,,-99.99,,2013-03-07 05:22:00,
2013-03-07 00:32:00,34.0,27.0,29.90,North,355,5.0,-999.0,74,-99.99,,,-99.99,,2013-03-07 05:32:00,
2013-03-07 00:42:00,34.0,27.0,29.90,North,355,5.0,-999.0,74,-99.99,,,-99.99,,2013-03-07 05:42:00,
2013-03-07 00:52:00,33.0,26.0,29.91,North,360,5.0,-999.0,74,-99.99,,,-99.99,,2013-03-07 05:52:00,
2013-03-07 01:01:00,33.0,26.0,29.90,North,355,5.0,-999.0,74,-99.99,,,-99.99,,2013-03-07 06:01:00,
2013-03-07 01:11:00,33.0,26.0,29.90,North,355,5.0,-999.0,74,-99.99,,,-99.99,,2013-03-07 06:11:00,
2013-03-07 01:21:00,33.0,26.0,29.91,NNW,335,5.0,-999.0,74,-99.99,,,-99.99,,2013-03-07 06:21:00,
2013-03-07 01:32:00,33.0,26.0,29.91,North,355,4.0,-999.0,74,-99.99,,,-99.99,,2013-03-07 06:32:00,
2013-03-07 01:42:00,33.0,26.0,29.91,North,5,5.0,-999.0,74,-99.99,,,-99.99,,2013-03-07 06:42:00,
2013-03-07 01:52:00,33.0,26.0,29.91,North,5,5.0,-999.0,74,-99.99,,,-99.99,,2013-03-07 06:52:00,
2013-03-07 02:01:00,33.0,26.0,29.91,NW,304,4.0,-999.0,74,-99.99,,,-99.99,,2013-03-07 07:01:00,
2013-03-07 02:11:00,33.0,26.0,29.91,NW,304,4.0,-999.0,74,-99.99,,,-99.99,,2013-03-07 07:11:00,
2013-03-07 02:21:00,33.0,26.0,29.91,NW,314,4.0,-999.0,74,-99.99,,,-99.99,,2013-03-07 07:21:00,
2013-03-07 02:32:00,33.0,26.0,29.91,NNE,13,5.0,-999.0,74,-99.99,,,-99.99,,2013-03-07 07:32:00,
2013-03-07 02:43:00,33.0,26.0,29.91,NNE,13,5.0,-999.0,74,-99.99,,,-99.99,,2013-03-07 07:43:00,
2013-03-07 02:53:00,33.0,26.0,29.90,NE,37,4.0,-999.0,74,-99.99,,,-99.99,,2013-03-07 07:53:00,
2013-03-07 03:12:00,33.0,26.0,29.91,North,5,4.0,-999.0,75,-99.99,,,-99.99,,2013-03-07 08:12:00,
2013-03-07 03:23:00,33.0,26.0,29.90,NW,307,4.0,-999.0,75,-99.99,,,-99.99,,2013-03-07 08:23:00,
2013-03-07 03:44:00,33.0,26.0,29.90,NNW,333,4.0,-999.0,76,-99.99,,,-99.99,,2013-03-07 08:44:00,
2013-03-07 03:54:00,33.0,26.0,29.91,NNW,338,4.0,-999.0,76,-99.99,,,-99.99,,2013-03-07 08:54:00,
2013-03-07 04:03:00,32.0,25.0,29.91,NW,308,5.0,-999.0,76,-99.99,,,-99.99,,2013-03-07 09:03:00,
2013-03-07 04:13:00,32.0,25.0,29.91,NW,308,5.0,-999.0,76,-99.99,,,-99.99,,2013-03-07 09:13:00,
2013-03-07 04:23:00,33.0,26.0,29.92,WNW,290,4.0,-999.0,76,-99.99,,,-99.99,,2013-03-07 09:23:00,
2013-03-07 04:33:00,33.0,26.0,29.92,NNW,342,4.0,-999.0,76,-99.99,,,-99.99,,2013-03-07 09:33:00,
2013-03-07 04:43:00,33.0,26.0,29.92,NNW,342,4.0,-999.0,76,-99.99,,,-99.99,,2013-03-07 09:43:00,
2013-03-07 04:53:00,32.0,25.0,29.92,NW,321,4.0,-999.0,75,-99.99,,,-99.99,,2013-03-07 09:53:00,
2013-03-07 05:03:00,32.0,25.0,29.93,NW,306,3.0,-999.0,75,-99.99,,,-99.99,,2013-03-07 10:03:00,
2013-03-07 05:13:00,32.0,25.0,29.93,NW,306,3.0,-999.0,75,-99.99,,,-99.99,,2013-03-07 10:13:00,
2013-03-07 05:23:00,32.0,25.0,29.93,West,269,5.0,-999.0,75,-99.99,,,-99.99,,2013-03-07 10:23:00,
2013-03-07 05:33:00,32.0,25.0,29.94,NW,313,5.0,-999.0,74,-99.99,,,-99.99,,2013-03-07 10:33:00,
2013-03-07 05:42:00,32.0,25.0,29.94,NW,313,5.0,-999.0,74,-99.99,,,-99.99,,2013-03-07 10:42:00,
2013-03-07 05:53:00,32.0,25.0,29.94,NW,325,4.0,-999.0,74,-99.99,,,-99.99,,2013-03-07 10:53:00,
2013-03-07 06:03:00,32.0,24.0,29.94,NNE,13,5.0,-999.0,73,-99.99,,,-99.99,,2013-03-07 11:03:00,
2013-03-07 06:12:00,32.0,24.0,29.94,NNE,13,5.0,-999.0,73,-99.99,,,-99.99,,2013-03-07 11:12:00,
2013-03-07 06:23:00,32.0,24.0,29.94,NW,313,5.0,-999.0,73,-99.99,,,-99.99,,2013-03-07 11:23:00,
2013-03-07 06:33:00,32.0,25.0,29.94,NE,44,3.0,-999.0,74,-99.99,,,-99.99,,2013-03-07 11:33:00,
2013-03-07 06:43:00,32.0,25.0,29.94,NE,44,3.0,-999.0,74,-99.99,,,-99.99,,2013-03-07 11:43:00,
2013-03-07 06:54:00,32.0,25.0,29.95,NNE,24,4.0,-999.0,74,-99.99,,,-99.99,,2013-03-07 11:54:00,
2013-03-07 07:03:00,32.0,24.0,29.96,NNE,15,4.0,-999.0,73,-99.99,,,-99.99,,2013-03-07 12:03:00,
2013-03-07 07:12:00,32.0,24.0,29.96,NNE,15,4.0,-999.0,73,-99.99,,,-99.99,,2013-03-07 12:12:00,
2013-03-07 07:23:00,32.0,24.0,29.96,NNE,15,4.0,-999.0,73,-99.99,,,-99.99,,2013-03-07 12:23:00,
2013-03-07 07:33:00,32.0,24.0,29.96,NNW,332,5.0,-999.0,73,-99.99,,,-99.99,,2013-03-07 12:33:00,
2013-03-07 07:43:00,32.0,24.0,29.96,NNW,332,5.0,-999.0,73,-99.99,,,-99.99,,2013-03-07 12:43:00,
2013-03-07 07:53:00,33.0,25.0,29.97,NNE,13,4.0,-999.0,73,-99.99,,,-99.99,,2013-03-07 12:53:00,
2013-03-07 08:03:00,32.0,24.0,29.97,NE,40,3.0,-999.0,73,-99.99,,,-99.99,,2013-03-07 13:03:00,
2013-03-07 08:12:00,32.0,24.0,29.97,NE,40,3.0,-999.0,73,-99.99,,,-99.99,,2013-03-07 13:12:00,
2013-03-07 08:23:00,33.0,25.0,29.98,NNE,15,4.0,-999.0,72,-99.99,,,-99.99,,2013-03-07 13:23:00,
2013-03-07 08:32:00,33.0,25.0,29.98,NNW,339,5.0,-999.0,71,-99.99,,,-99.99,,2013-03-07 13:32:00,
2013-03-07 08:42:00,33.0,25.0,29.98,NNW,339,5.0,-999.0,71,-99.99,,,-99.99,,2013-03-07 13:42:00,
2013-03-07 08:53:00,33.0,25.0,29.98,North,5,4.0,-999.0,71,-99.99,,,-99.99,,2013-03-07 13:53:00,
2013-03-07 09:02:00,34.0,26.0,29.98,NE,47,5.0,-999.0,71,-99.99,,,-99.99,,2013-03-07 14:02:00,
2013-03-07 09:12:00,34.0,26.0,29.98,NE,47,5.0,-999.0,71,-99.99,,,-99.99,,2013-03-07 14:12:00,
2013-03-07 09:23:00,34.0,25.0,29.98,North,5,3.0,-999.0,70,-99.99,,,-99.99,,2013-03-07 14:23:00,
2013-03-07 09:33:00,34.0,25.0,29.98,NNE,15,3.0,-999.0,69,-99.99,,,-99.99,,2013-03-07 14:33:00,
2013-03-07 09:42:00,34.0,25.0,29.98,NNE,15,3.0,-999.0,69,-99.99,,,-99.99,,2013-03-07 14:42:00,
2013-03-07 09:54:00,35.0,26.0,29.98,NNW,327,4.0,-999.0,69,-99.99,,,-99.99,,2013-03-07 14:54:00,
2013-03-07 10:03:00,35.0,26.0,29.99,NNW,334,5.0,-999.0,69,-99.99,,,-99.99,,2013-03-07 15:03:00,
2013-03-07 10:12:00,35.0,26.0,29.99,NNW,334,5.0,-999.0,69,-99.99,,,-99.99,,2013-03-07 15:12:00,
2013-03-07 10:23:00,35.0,26.0,29.99,NNW,339,3.0,-999.0,70,-99.99,,,-99.99,,2013-03-07 15:23:00,
2013-03-07 10:32:00,34.0,25.0,29.99,NNE,31,6.0,-999.0,69,-99.99,,,-99.99,,2013-03-07 15:32:00,
2013-03-07 10:42:00,34.0,25.0,29.99,NNE,31,6.0,-999.0,69,-99.99,,,-99.99,,2013-03-07 15:42:00,
2013-03-07 10:53:00,35.0,26.0,29.99,NW,307,5.0,-999.0,70,-99.99,,,-99.99,,2013-03-07 15:53:00,
2013-03-07 11:02:00,35.0,26.0,29.99,WNW,297,4.0,-999.0,70,-99.99,,,-99.99,,2013-03-07 16:02:00,
2013-03-07 11:13:00,35.0,26.0,29.99,WNW,297,4.0,-999.0,70,-99.99,,,-99.99,,2013-03-07 16:13:00,
2013-03-07 11:23:00,36.0,27.0,30.00,NNE,24,5.0,-999.0,70,-99.99,,,-99.99,,2013-03-07 16:23:00,
2013-03-07 11:33:00,35.0,27.0,29.99,NW,314,5.0,-999.0,71,-99.99,,,-99.99,,2013-03-07 16:33:00,
2013-03-07 11:43:00,35.0,27.0,29.99,NW,314,5.0,-999.0,71,-99.99,,,-99.99,,2013-03-07 16:43:00,
2013-03-07 11:53:00,36.0,27.0,29.99,NW,321,4.0,-999.0,70,-99.99,,,-99.99,,2013-03-07 16:53:00,
2013-03-07 12:02:00,37.0,28.0,29.99,NNE,16,3.0,-999.0,71,-99.99,,,-99.99,,2013-03-07 17:02:00,
2013-03-07 12:12:00,37.0,28.0,29.99,NNE,16,3.0,-999.0,71,-99.99,,,-99.99,,2013-03-07 17:12:00,
2013-03-07 12:22:00,37.0,28.0,29.99,NNW,345,4.0,-999.0,69,-99.99,,,-99.99,,2013-03-07 17:22:00,
2013-03-07 12:33:00,37.0,28.0,29.99,NW,322,3.0,-999.0,69,-99.99,,,-99.99,,2013-03-07 17:33:00,
2013-03-07 12:43:00,37.0,28.0,29.99,NW,322,3.0,-999.0,69,-99.99,,,-99.99,,2013-03-07 17:43:00,
2013-03-07 12:54:00,37.0,28.0,29.99,WNW,302,4.0,-999.0,71,-99.99,,,-99.99,,2013-03-07 17:54:00,
2013-03-07 13:04:00,36.0,28.0,29.99,NNW,331,4.0,-999.0,73,-99.99,,,-99.99,,2013-03-07 18:04:00,
2013-03-07 13:12:00,36.0,28.0,29.99,NNW,331,4.0,-999.0,73,-99.99,,,-99.99,,2013-03-07 18:12:00,
2013-03-07 13:22:00,38.0,30.0,29.98,WNW,302,3.0,-999.0,72,-99.99,,,-99.99,,2013-03-07 18:22:00,
2013-03-07 13:32:00,37.0,29.0,29.98,NW,315,3.0,-999.0,74,-99.99,,,-99.99,,2013-03-07 18:32:00,
2013-03-07 13:42:00,37.0,29.0,29.98,NW,315,3.0,-999.0,74,-99.99,,,-99.99,,2013-03-07 18:42:00,
2013-03-07 13:53:00,37.0,30.0,29.98,NE,47,3.0,-999.0,77,-99.99,,,-99.99,,2013-03-07 18:53:00,
2013-03-07 14:03:00,37.0,31.0,29.98,WSW,255,3.0,-999.0,78,-99.99,,,-99.99,,2013-03-07 19:03:00,
2013-03-07 14:12:00,37.0,31.0,29.98,WNW,292,4.0,-999.0,79,-99.99,,,-99.99,,2013-03-07 19:12:00,
2013-03-07 14:23:00,37.0,31.0,29.98,WNW,292,4.0,-999.0,79,-99.99,,,-99.99,,2013-03-07 19:23:00,
2013-03-07 14:35:00,37.0,31.0,29.98,WNW,292,4.0,-999.0,79,-99.99,,,-99.99,,2013-03-07 19:35:00,
2013-03-07 14:43:00,37.0,31.0,29.98,WNW,292,4.0,-999.0,79,-99.99,,,-99.99,,2013-03-07 19:43:00,
2013-03-07 14:53:00,37.0,31.0,29.98,NW,321,4.0,-999.0,79,-99.99,,,-99.99,,2013-03-07 19:53:00,
2013-03-07 15:02:00,36.0,30.0,29.99,NW,317,4.0,-999.0,80,-99.99,,,-99.99,,2013-03-07 20:02:00,
2013-03-07 15:22:00,36.0,31.0,29.99,NW,317,3.0,-999.0,83,-99.99,,,-99.99,,2013-03-07 20:22:00,
2013-03-07 15:33:00,36.0,32.0,30.00,West,261,3.0,-999.0,84,-99.99,,,-99.99,,2013-03-07 20:33:00,
2013-03-07 15:43:00,36.0,32.0,30.00,West,261,3.0,-999.0,84,-99.99,,,-99.99,,2013-03-07 20:43:00,
2013-03-07 15:54:00,35.0,31.0,30.00,NE,34,3.0,-999.0,86,-99.99,,,-99.99,,2013-03-07 20:54:00,
2013-03-07 16:03:00,35.0,32.0,30.01,NNW,327,2.0,-999.0,87,-99.99,,,-99.99,,2013-03-07 21:03:00,
2013-03-07 16:12:00,35.0,32.0,30.01,NNW,327,2.0,-999.0,87,-99.99,,,-99.99,,2013-03-07 21:12:00,
2013-03-07 16:23:00,35.0,32.0,30.01,WNW,298,3.0,-999.0,88,-99.99,,,-99.99,,2013-03-07 21:23:00,
2013-03-07 16:33:00,34.0,31.0,30.01,NNW,331,5.0,-999.0,88,-99.99,,,-99.99,,2013-03-07 21:33:00,
2013-03-07 16:43:00,34.0,31.0,30.01,NNW,331,5.0,-999.0,88,-99.99,,,-99.99,,2013-03-07 21:43:00,
2013-03-07 16:53:00,34.0,31.0,30.02,WNW,284,4.0,-999.0,88,-99.99,,,-99.99,,2013-03-07 21:53:00,
2013-03-07 17:02:00,33.0,30.0,30.02,North,351,4.0,-999.0,88,-99.99,,,-99.99,,2013-03-07 22:02:00,
2013-03-07 17:12:00,33.0,30.0,30.02,North,351,4.0,-999.0,88,-99.99,,,-99.99,,2013-03-07 22:12:00,
2013-03-07 17:22:00,33.0,30.0,30.02,West,271,4.0,-999.0,89,-99.99,,,-99.99,,2013-03-07 22:22:00,
2013-03-07 17:32:00,32.0,29.0,30.03,WNW,288,3.0,-999.0,89,-99.99,,,-99.99,,2013-03-07 22:32:00,
2013-03-07 17:43:00,32.0,29.0,30.03,WNW,288,3.0,-999.0,89,-99.99,,,-99.99,,2013-03-07 22:43:00,
2013-03-07 17:54:00,32.0,30.0,30.03,NW,323,3.0,-999.0,91,-99.99,,,-99.99,,2013-03-07 22:54:00,
2013-03-07 18:13:00,32.0,30.0,30.03,WNW,285,4.0,-999.0,91,-99.99,,,-99.99,,2013-03-07 23:13:00,
2013-03-07 18:22:00,32.0,30.0,30.03,NW,309,3.0,-999.0,92,-99.99,,,-99.99,,2013-03-07 23:22:00,
2013-03-07 18:33:00,31.0,29.0,30.03,NNW,332,2.0,-999.0,92,-99.99,,,-99.99,,2013-03-07 23:33:00,
2013-03-07 18:43:00,31.0,29.0,30.03,NNW,332,2.0,-999.0,92,-99.99,,,-99.99,,2013-03-07 23:43:00,
2013-03-07 18:54:00,31.0,29.0,30.04,NW,311,2.0,-999.0,93,-99.99,,,-99.99,,2013-03-07 23:54:00,
2013-03-07 19:04:00,32.0,30.0,30.04,NW,313,2.0,-999.0,93,-99.99,,,-99.99,,2013-03-08 00:04:00,
2013-03-07 19:13:00,32.0,30.0,30.04,NW,313,2.0,-999.0,93,-99.99,,,-99.99,,2013-03-08 00:13:00,
2013-03-07 19:23:00,32.0,30.0,30.04,NW,305,3.0,-999.0,93,-99.99,,,-99.99,,2013-03-08 00:23:00,
2013-03-07 19:34:00,32.0,30.0,30.04,NW,324,3.0,-999.0,93,-99.99,,,-99.99,,2013-03-08 00:34:00,
2013-03-07 19:43:00,32.0,30.0,30.04,NW,324,3.0,-999.0,93,-99.99,,,-99.99,,2013-03-08 00:43:00,
2013-03-07 19:54:00,32.0,30.0,30.04,NW,318,3.0,-999.0,93,-99.99,,,-99.99,,2013-03-08 00:54:00,
2013-03-07 20:02:00,32.0,30.0,30.04,NW,319,3.0,-999.0,93,-99.99,,,-99.99,,2013-03-08 01:02:00,
2013-03-07 20:11:00,32.0,30.0,30.04,NW,319,3.0,-999.0,93,-99.99,,,-99.99,,2013-03-08 01:11:00,
2013-03-07 20:22:00,31.0,29.0,30.03,WNW,294,2.0,-999.0,93,-99.99,,,-99.99,,2013-03-08 01:22:00,
2013-03-07 20:33:00,31.0,29.0,30.03,NW,308,3.0,-999.0,92,-99.99,,,-99.99,,2013-03-08 01:33:00,
2013-03-07 20:42:00,31.0,29.0,30.03,NW,308,3.0,-999.0,92,-99.99,,,-99.99,,2013-03-08 01:42:00,
2013-03-07 20:52:00,31.0,29.0,30.03,NW,305,3.0,-999.0,92,-99.99,,,-99.99,,2013-03-08 01:52:00,
2013-03-07 21:01:00,32.0,30.0,30.03,NW,304,2.0,-999.0,92,-99.99,,,-99.99,,2013-03-08 02:01:00,
2013-03-07 21:12:00,31.0,29.0,30.03,WNW,300,2.0,-999.0,92,-99.99,,,-99.99,,2013-03-08 02:12:00,
2013-03-07 21:22:00,31.0,29.0,30.03,WNW,300,2.0,-999.0,92,-99.99,,,-99.99,,2013-03-08 02:22:00,
2013-03-07 21:32:00,31.0,29.0,30.03,NW,316,2.0,-999.0,92,-99.99,,,-99.99,,2013-03-08 02:32:00,
2013-03-07 21:42:00,31.0,29.0,30.03,NW,316,2.0,-999.0,92,-99.99,,,-99.99,,2013-03-08 02:42:00,
2013-03-07 21:53:00,31.0,29.0,30.03,WNW,284,2.0,-999.0,92,-99.99,,,-99.99,,2013-03-08 02:53:00,
2013-03-07 22:02:00,31.0,29.0,30.02,NNW,334,2.0,-999.0,92,-99.99,,,-99.99,,2013-03-08 03:02:00,
2013-03-07 22:12:00,31.0,29.0,30.02,NNW,334,2.0,-999.0,92,-99.99,,,-99.99,,2013-03-08 03:12:00,
2013-03-07 22:22:00,31.0,29.0,30.02,NW,315,3.0,-999.0,92,-99.99,,,-99.99,,2013-03-08 03:22:00,
2013-03-07 22:32:00,31.0,29.0,30.02,NW,323,3.0,-999.0,92,-99.99,,,-99.99,,2013-03-08 03:32:00,
2013-03-07 22:43:00,31.0,29.0,30.02,NW,323,3.0,-999.0,92,-99.99,,,-99.99,,2013-03-08 03:43:00,
2013-03-07 22:53:00,31.0,29.0,30.01,NNW,333,2.0,-999.0,93,-99.99,,,-99.99,,2013-03-08 03:53:00,
2013-03-07 23:02:00,30.0,28.0,30.02,NNW,344,2.0,-999.0,93,-99.99,,,-99.99,,2013-03-08 04:02:00,
2013-03-07 23:11:00,30.0,28.0,30.02,NNW,344,2.0,-999.0,93,-99.99,,,-99.99,,2013-03-08 04:11:00,
2013-03-07 23:22:00,30.0,28.0,30.02,NW,323,2.0,-999.0,93,-99.99,,,-99.99,,2013-03-08 04:22:00,
2013-03-07 23:32:00,30.0,28.0,30.02,NNW,336,2.0,-999.0,93,-99.99,,,-99.99,,2013-03-08 04:32:00,
2013-03-07 23:42:00,30.0,28.0,30.02,NNW,336,2.0,-999.0,93,-99.99,,,-99.99,,2013-03-08 04:42:00,
2013-03-07 23:52:00,30.0,28.0,30.02,NNW,329,3.0,-999.0,93,-99.99,,,-99.99,,2013-03-08 04:52:00,